Location: Hertford
(51.8000°N, 0.0667°W)
Time: 13:41:22
(UTC+00:00)

Cosmos 1455 Rocket - Pass Details

Date: 18 September 2020
Orbit: 604 x 630 km, 82.5° (Epoch: 25 October)

Event Time Altitude Azimuth Distance (km) Brightness Sun altitude
Exits shadow 21:22:57 33° 15° (NNE) 1,054 4.4 -28.0°
Drops below altitude 10° 21:25:24 10° 12° (NNE) 1,993 6.0 -28.2°
Sets 21:27:38 0° 12° (NNE) 2,899 7.0 -28.5°
